This demonstration page uses our WeatherBlox Daily Observations layout. Learn more.

Left ArrowRight Arrow

39.95238, -75.16362

Hourly Observations for August 28, 2016

Temp ( °F °C ) Dew Point ( °F °C ) Humidity (%) Winds ( mph kmh ) Pressure ( in mb ) Visibility ( mi km ) Precip ( " mm )
12:54 am 00:54 Mostly Clear 72 22.2 67 19.4 84 84 E 3 6 30.22 1023 10 16 0.00 0.00
1:54 am 01:54 Mostly Clear 71 21.7 68 20 90 90 E 5 7 30.21 1023 10 16 0.00 0.00
2:54 am 02:54 Mostly Clear 73 22.8 69 20.6 87 87 Calm 30.21 1023 10 16 0.00 0.00
3:54 am 03:54 Mostly Clear 71 21.7 68 20 90 90 Calm 30.21 1023 10 16 0.00 0.00
4:54 am 04:54 Clear 71 21.7 68 20 90 90 Calm 30.22 1024 10 16 0.00 0.00
5:54 am 05:54 Mostly Clear 70 21.1 68 20 93 93 NE 3 6 30.23 1024 10 16 0.00 0.00
6:54 am 06:54 Mostly Sunny 71 21.7 68 20 90 90 NE 3 6 30.25 1024 10 16 0.00 0.00
7:54 am 07:54 Mostly Sunny 75 23.9 69 20.6 82 82 NNE 3 6 30.26 1025 10 16 0.00 0.00
8:54 am 08:54 Mostly Sunny 78 25.6 69 20.6 74 74 Calm 30.27 1025 10 16 0.00 0.00
9:54 am 09:54 Mostly Sunny 80 26.7 67 19.4 64 64 Calm 30.26 1025 10 16 0.00 0.00
10:54 am 10:54 Partly Cloudy 83 28.3 66 18.9 57 57 VRB 3 6 30.26 1025 10 16 0.00 0.00
11:54 am 11:54 Mostly Sunny 85 29.4 63 17.2 48 48 VRB 3 6 30.25 1024 10 16 0.00 0.00
12:54 pm 12:54 Mostly Sunny 88 31.1 63 17.2 43 43 Calm 30.24 1024 10 16 0.00 0.00
1:54 pm 13:54 Mostly Sunny 88 31.1 62 16.7 42 42 S 7 11 30.22 1024 10 16 0.00 0.00
2:54 pm 14:54 Mostly Sunny 88 31.1 62 16.7 42 42 W 8 13 30.21 1023 10 16 0.00 0.00
3:54 pm 15:54 Partly Cloudy 88 31.1 62 16.7 42 42 SW 7 11 30.18 1022 10 16 0.00 0.00
4:54 pm 16:54 Partly Cloudy 89 31.7 63 17.2 42 42 S 8 13 30.16 1021 10 16 0.00 0.00
5:54 pm 17:54 Partly Cloudy 89 31.7 64 17.8 43 43 W 8 13 30.16 1021 10 16 0.00 0.00
6:54 pm 18:54 Mostly Sunny 86 30 67 19.4 53 53 SW 12 19 30.14 1021 10 16 0.00 0.00
7:54 pm 19:54 Mostly Clear 83 28.3 65 18.3 55 55 SSW 12 19 30.15 1021 10 16 0.00 0.00
8:54 pm 20:54 Mostly Clear 81 27.2 65 18.3 58 58 SSW 8 13 30.16 1021 10 16 0.00 0.00
9:54 pm 21:54 Clear 78 25.6 65 18.3 64 64 S 8 13 30.16 1021 10 16 0.00 0.00
10:54 pm 22:54 Clear 77 25 65 18.3 66 66 SSW 7 11 30.19 1023 10 16 0.00 0.00
11:54 pm 23:54 Partly Cloudy 75 23.9 67 19.4 76 76 SSW 7 11 30.20 1023 10 16 0.00 0.00

Powered by AerisWeather